Wind_Speed
8 8 9 10 11 10 10 10 10 10 9 9 10 10 10 10 10 10 10 11 10 10 11 11 11 11 11 12 13 14 14 15 15 15 15 15 15 16 16 16 17 17 17
8 8 8 9 9 10 10 10 10 10 10 10 10 9 9 9 10 9 9 9 9 10 10 10 11 11 12 12 13 13 14 15 15 15 15 16 16 16 16 16 16 17 17
7 7 8 8 8 9 9 10 9 9 9 9 9 9 9 9 9 9 9 10 10 10 11 10 10 11 11 11 12 12 13 14 14 15 15 15 15 16 16 16 17 17 17
5 6 6 7 7 8 8 9 9 8 9 9 9 9 9 9 9 10 10 10 11 11 11 10 10 10 11 11 11 11 11 12 12 13 13 13 14 14 15 16 16 16 16
5 5 6 6 6 7 7 8 8 9 9 9 9 9 10 10 10 10 10 10 10 10 10 10 10 10 10 10 10 10 11 11 11 12 12 13 13 14 15 15 16 15 15
5 6 6 6 6 7 8 8 8 9 9 9 9 10 10 10 10 10 10 10 10 10 10 10 10 10 10 10 10 11 11 11 12 11 12 12 12 13 14 14 14 15 15
6 6 6 6 6 7 7 8 8 9 9 9 9 10 10 11 11 10 11 10 11 11 11 11 11 11 11 12 11 11 12 12 12 12 13 13 13 14 14 14 15 15 15
7 7 7 6 7 7 8 8 8 9 10 10 10 10 10 11 11 11 11 11 11 11 12 12 12 12 12 13 12 12 13 13 13 14 14 14 14 15 15 16 16 16 15
8 8 8 8 8 8 8 8 8 9 9 10 10 10 10 10 11 11 12 12 12 12 12 13 13 13 13 14 14 13 13 14 15 15 15 15 15 16 16 16 16 15 15
10 10 10 9 9 9 9 9 9 9 9 10 11 11 11 11 11 12 12 12 13 13 13 13 14 14 14 14 14 14 15 16 16 16 16 16 17 17 17 17 16 15 14
10 11 10 10 10 11 10 10 10 10 11 11 11 11 11 12 12 12 13 12 13 13 14 14 15 15 15 15 16 16 16 17 17 17 18 17 17 17 17 17 16 15 14
10 10 11 11 11 11 11 11 11 12 12 12 12 12 12 13 13 13 14 14 14 14 14 15 15 16 16 16 16 16 17 17 17 18 18 18 17 17 17 17 17 16 15
11 11 11 12 12 12 11 11 12 12 12 13 13 13 14 14 14 14 14 15 15 15 15 15 16 16 16 16 16 16 17 17 18 18 18 18 17 17 17 17 16 15 15
12 12 12 12 12 12 12 12 13 13 13 13 14 14 15 15 15 15 15 16 16 16 16 16 16 16 17 17 17 17 17 18 18 18 18 18 17 17 17 15 15 14 14
14 14 14 14 14 14 13 13 13 13 14 14 15 15 15 16 16 16 17 16 16 16 17 17 17 17 17 18 18 18 18 18 19 18 18 18 18 17 17 15 15 15 16
15 15 15 15 15 14 14 14 14 14 15 16 17 17 17 17 17 18 18 18 18 18 17 17 17 18 18 18 18 19 19 19 19 19 19 19 19 18 18 17 17 17 17
15 16 16 15 15 15 15 14 15 15 15 16 17 17 18 18 18 18 18 19 19 18 18 18 19 19 19 19 19 19 19 20 20 20 20 20 20 20 19 18 18 18 18
15 15 15 15 15 15 15 15 15 16 16 16 16 17 17 18 18 19 19 19 20 20 20 19 20 20 20 20 20 20 21 21 21 21 21 21 21 21 20 20 20 20 21
16 16 15 15 15 15 15 16 17 17 16 16 16 16 17 17 18 19 19 20 20 21 21 21 21 21 21 21 21 21 22 22 22 22 22 22 22 22 21 22 22 23 22
16 16 16 16 16 16 17 17 17 17 16 16 17 17 17 17 18 19 19 20 21 21 22 22 22 22 22 22 22 22 23 23 23 23 23 23 23 23 23 23 23 23 23
16 16 16 17 17 17 18 18 18 17 17 17 17 18 18 18 18 20 20 20 21 22 22 23 22 22 23 23 23 23 24 24 24 24 24 24 24 24 25 24 24 24 24
17 17 17 17 17 18 18 19 19 19 19 19 18 19 19 19 20 21 21 22 23 23 23 24 24 24 24 24 25 25 25 25 25 25 25 25 25 25 26 26 25 25 25
18 18 18 18 18 19 19 20 20 20 20 19 19 20 20 20 21 21 22 23 23 24 24 25 25 25 25 25 25 26 26 26 26 26 26 26 26 26 26 26 26 27 26
19 18 18 19 19 19 20 20 20 19 19 19 19 20 21 21 21 22 22 23 23 24 24 25 25 25 25 25 26 26 26 26 26 26 27 27 27 27 27 27 27 27 27
20 20 19 20 20 21 21 21 21 20 20 20 21 21 21 22 22 23 23 23 24 24 25 25 25 25 26 26 26 27 27 27 27 27 28 28 27 27 28 28 28 28 28
21 21 21 21 22 22 22 22 22 21 21 22 22 23 23 23 24 24 24 25 25 25 25 25 26 26 27 27 27 28 28 28 28 28 29 29 29 28 28 28 28 29 30
Wind_Direction
247 249 247 246 245 245 246 245 248 253 253 249 248 252 255 256 256 256 252 254 256 259 261 263 264 266 269 269 270 271 272 272 274 273 273 274 275 277 275 273 272 269 268
247 248 246 245 244 244 244 245 249 255 254 254 252 252 252 253 256 257 254 256 257 258 261 264 266 268 271 274 275 275 275 276 276 275 274 275 275 275 274 273 273 271 268
248 245 244 243 243 246 248 248 250 253 255 255 256 252 252 254 256 257 256 259 259 261 263 265 270 273 275 277 279 279 280 280 280 278 278 276 275 274 273 274 275 272 271
243 247 245 241 244 248 250 251 249 251 253 257 254 250 252 254 260 259 257 260 263 264 265 268 271 273 276 279 281 281 283 281 283 283 282 280 276 277 277 277 278 275 272
246 247 246 244 248 248 248 253 252 250 255 256 250 252 254 256 261 261 261 261 262 262 264 267 270 273 275 276 276 279 281 283 286 287 285 283 278 279 279 280 280 278 276
249 249 246 251 252 248 248 254 255 253 255 253 251 252 254 258 263 263 264 263 260 261 262 263 266 271 274 274 274 277 280 283 286 286 284 286 286 283 281 281 282 282 277
252 253 253 253 252 252 255 258 256 254 253 250 251 253 257 261 264 263 263 265 264 264 264 266 268 269 271 271 272 275 278 281 284 282 284 288 288 287 285 284 285 285 281
257 259 254 250 252 257 257 258 254 252 249 251 253 255 259 261 261 264 265 265 267 267 266 268 270 270 270 272 271 274 276 277 282 283 285 288 287 285 287 290 290 286 280
261 261 254 255 258 260 258 258 258 256 252 254 257 258 258 261 266 265 265 265 268 270 270 272 274 273 272 273 273 272 276 280 281 279 280 282 283 286 291 292 290 288 283
263 266 261 260 260 260 261 261 261 259 258 258 259 259 262 264 264 266 267 266 267 269 270 273 276 277 277 276 275 275 276 278 278 279 279 282 285 287 288 288 288 285 281
266 265 263 265 264 262 260 258 261 260 260 263 263 263 262 262 263 265 266 267 269 269 270 272 275 277 278 278 276 276 278 277 278 279 282 285 286 287 286 286 284 280 277
267 265 265 269 270 266 265 263 262 260 262 263 262 263 265 265 266 266 265 265 268 272 275 275 276 279 280 279 278 277 277 278 280 280 281 281 282 284 285 285 283 278 273
271 270 269 272 273 272 270 269 266 264 266 264 263 265 266 267 268 267 266 267 269 272 275 276 278 280 281 281 280 278 277 278 280 280 280 281 282 285 287 287 284 277 271
268 268 270 272 272 272 273 272 271 270 269 268 267 266 266 266 268 269 269 269 270 272 275 277 278 279 280 281 281 280 280 279 278 280 281 281 283 284 287 286 281 276 272
268 270 270 270 271 271 271 272 273 273 271 271 271 270 270 270 271 272 271 271 272 273 275 277 279 278 280 280 280 280 281 281 280 278 279 280 282 282 282 281 280 276 273
270 272 270 271 272 273 272 271 274 276 276 274 272 271 271 272 273 273 272 271 271 273 275 276 278 280 280 280 280 279 280 280 280 280 280 280 279 278 278 277 277 276 276
272 272 272 272 273 274 274 275 276 278 279 278 275 273 272 271 271 271 271 271 272 273 274 275 277 279 280 281 282 282 282 281 280 281 280 279 278 277 277 276 276 276 276
271 272 272 273 274 276 278 278 280 281 279 278 277 275 272 271 271 271 271 271 272 272 273 274 275 277 278 279 280 280 281 281 281 280 278 278 278 277 276 276 275 274 274
272 271 271 273 275 277 279 281 282 283 280 279 277 275 273 270 271 273 271 271 272 272 272 273 274 276 276 277 278 280 281 280 279 278 277 277 277 275 274 275 274 274 272
273 272 271 272 273 275 279 281 283 285 283 281 279 277 275 274 274 275 275 275 274 274 274 274 273 274 274 277 278 279 279 279 279 278 277 276 276 274 274 274 273 273 272
273 272 271 272 273 276 278 280 281 282 283 282 280 278 276 276 276 277 277 277 276 276 275 275 274 273 273 275 277 278 279 278 279 277 277 276 276 274 274 274 273 274 273
273 272 272 273 275 277 279 280 281 281 280 281 281 279 278 277 278 279 279 278 279 278 277 276 275 274 274 275 276 277 278 278 277 278 277 276 275 274 275 275 275 276 276
273 272 272 273 275 278 280 279 279 279 279 279 280 279 279 279 280 280 280 281 281 280 279 277 276 275 275 276 279 280 280 280 277 278 278 278 277 276 276 276 277 277 277
273 272 272 274 276 278 280 279 279 279 279 279 280 280 280 280 281 282 282 282 282 282 280 279 278 276 276 277 279 280 280 282 280 278 279 279 277 275 275 276 277 278 278
274 273 273 274 276 278 280 279 278 280 280 281 282 282 281 282 282 282 283 282 281 282 281 279 278 276 275 276 277 278 278 280 280 280 279 279 278 276 276 276 277 278 278
274 274 273 273 275 277 279 279 278 279 281 281 282 282 282 282 282 282 283 283 283 281 280 279 277 276 277 277 277 277 278 279 280 280 280 280 278 277 277 276 276 277 278
Height
5860 5860 5860 5861 5861 5862 5862 5863 5863 5863 5863 5863 5864 5864 5864 5864 5864 5864 5864 5864 5864 5864 5864 5864 5864 5864 5864 5863 5863 5862 5862 5862 5861 5861 5860 5860 5859 5859 5858 5858 5857 5857 5857
5858 5859 5859 5859 5860 5860 5860 5861 5861 5861 5861 5861 5862 5862 5862 5862 5862 5862 5862 5862 5862 5862 5862 5862 5862 5861 5861 5861 5860 5859 5859 5858 5858 5858 5857 5856 5856 5855 5855 5854 5854 5854 5853
5857 5857 5857 5858 5858 5858 5858 5859 5859 5859 5859 5860 5860 5860 5860 5860 5860 5860 5860 5860 5860 5860 5860 5859 5859 5859 5858 5858 5857 5857 5856 5855 5855 5854 5854 5853 5852 5852 5851 5851 5851 5850 5849
5855 5856 5856 5856 5856 5856 5857 5857 5857 5858 5858 5857 5857 5858 5858 5858 5858 5858 5858 5858 5858 5857 5857 5857 5857 5856 5856 5855 5855 5854 5853 5852 5852 5851 5850 5850 5849 5848 5848 5847 5847 5846 5846
5854 5854 5854 5854 5855 5855 5855 5855 5855 5855 5855 5855 5855 5855 5856 5856 5856 5856 5856 5855 5855 5855 5855 5854 5854 5854 5853 5853 5852 5852 5851 5850 5849 5848 5847 5846 5846 5845 5844 5843 5843 5842 5841
5853 5853 5853 5853 5853 5853 5853 5853 5853 5853 5853 5853 5853 5853 5853 5853 5853 5853 5853 5853 5853 5853 5852 5852 5851 5851 5851 5850 5850 5849 5848 5847 5846 5845 5844 5843 5842 5842 5841 5840 5839 5838 5837
5852 5852 5851 5851 5851 5851 5852 5851 5851 5851 5851 5851 5851 5851 5851 5851 5851 5851 5851 5851 5850 5850 5849 5849 5849 5848 5848 5847 5847 5846 5845 5844 5843 5842 5841 5840 5839 5838 5837 5836 5834 5833 5832
5850 5850 5850 5850 5850 5850 5850 5849 5849 5848 5848 5848 5849 5849 5849 5849 5848 5848 5848 5848 5847 5847 5847 5846 5846 5845 5845 5844 5844 5843 5842 5841 5840 5839 5838 5837 5836 5835 5834 5832 5830 5827 5825
5848 5848 5848 5848 5847 5847 5847 5847 5847 5846 5846 5846 5846 5847 5847 5846 5846 5846 5845 5845 5844 5844 5844 5843 5842 5842 5841 5841 5840 5840 5839 5838 5837 5835 5835 5834 5833 5831 5830 5828 5826 5823 5821
5846 5845 5845 5845 5845 5845 5844 5844 5844 5844 5844 5844 5844 5844 5844 5843 5843 5843 5843 5842 5841 5841 5840 5840 5839 5838 5838 5837 5837 5836 5835 5834 5833 5832 5831 5830 5829 5827 5826 5825 5822 5820 5818
5843 5843 5842 5842 5842 5842 5842 5841 5841 5841 5841 5841 5841 5841 5840 5840 5840 5840 5839 5839 5838 5838 5837 5836 5836 5835 5834 5833 5833 5832 5832 5831 5830 5828 5827 5826 5825 5824 5822 5821 5819 5817 5817
5841 5840 5840 5839 5839 5839 5838 5838 5838 5838 5838 5838 5837 5837 5837 5837 5836 5836 5836 5835 5835 5834 5833 5833 5832 5831 5830 5829 5829 5828 5827 5827 5826 5825 5824 5823 5821 5820 5818 5816 5814 5813 5813
5838 5837 5837 5837 5836 5835 5835 5835 5834 5834 5834 5834 5834 5833 5833 5833 5832 5832 5832 5831 5831 5830 5829 5829 5828 5827 5826 5825 5825 5824 5823 5822 5821 5820 5819 5818 5817 5816 5814 5811 5809 5808 5809
5835 5834 5834 5833 5833 5832 5831 5831 5831 5830 5830 5830 5829 5829 5829 5828 5828 5828 5828 5827 5827 5827 5826 5825 5824 5823 5822 5821 5820 5820 5819 5818 5817 5816 5815 5814 5813 5812 5810 5807 5805 5805 5806
5831 5831 5830 5830 5829 5828 5828 5827 5827 5826 5826 5825 5825 5824 5824 5824 5823 5823 5823 5823 5823 5822 5822 5820 5819 5818 5818 5817 5816 5815 5814 5813 5812 5811 5810 5809 5808 5807 5806 5804 5803 5802 5802
5827 5827 5826 5825 5825 5824 5823 5823 5822 5821 5821 5820 5820 5819 5819 5818 5818 5818 5818 5817 5817 5817 5817 5816 5815 5814 5813 5812 5811 5810 5809 5808 5807 5806 5805 5804 5804 5803 5802 5801 5800 5799 5799
5823 5822 5822 5821 5820 5820 5819 5818 5817 5817 5816 5815 5814 5814 5813 5813 5813 5812 5812 5812 5812 5812 5811 5811 5810 5809 5808 5807 5806 5805 5804 5804 5803 5802 5801 5799 5799 5798 5797 5796 5796 5795 5794
5818 5818 5817 5816 5816 5815 5815 5814 5813 5812 5810 5809 5809 5808 5807 5807 5807 5807 5807 5806 5806 5806 5806 5805 5804 5804 5803 5802 5801 5800 5799 5798 5797 5796 5795 5794 5793 5792 5791 5791 5790 5789 5789
5813 5813 5812 5812 5811 5811 5810 5809 5808 5806 5805 5804 5803 5803 5802 5802 5802 5801 5801 5801 5800 5800 5800 5799 5799 5798 5797 5796 5796 5795 5793 5792 5792 5791 5790 5789 5788 5787 5786 5785 5784 5783 5782
5809 5808 5808 5807 5807 5806 5805 5804 5803 5801 5800 5799 5798 5798 5797 5797 5796 5796 5795 5795 5794 5794 5793 5792 5792 5791 5791 5790 5789 5788 5787 5786 5785 5784 5783 5782 5781 5780 5779 5778 5777 5777 5776
5804 5803 5803 5802 5802 5801 5800 5799 5798 5796 5795 5794 5793 5793 5792 5792 5791 5790 5790 5789 5788 5787 5786 5786 5785 5785 5784 5784 5783 5781 5780 5779 5778 5777 5776 5775 5774 5773 5772 5771 5770 5769 5768
5799 5798 5798 5797 5797 5796 5795 5794 5792 5791 5790 5789 5788 5787 5787 5786 5785 5784 5784 5783 5782 5781 5780 5779 5778 5777 5777 5776 5776 5774 5773 5772 5771 5770 5768 5767 5766 5765 5764 5763 5762 5761 5760
5794 5793 5793 5792 5791 5791 5790 5788 5787 5786 5785 5784 5783 5782 5781 5780 5779 5778 5777 5776 5775 5774 5773 5772 5770 5770 5769 5769 5768 5767 5765 5764 5763 5762 5760 5759 5758 5757 5756 5755 5754 5753 5752
5788 5787 5787 5786 5786 5785 5784 5782 5781 5780 5779 5778 5777 5776 5775 5774 5773 5772 5771 5769 5768 5766 5765 5764 5763 5762 5761 5761 5760 5759 5757 5756 5755 5753 5752 5751 5750 5749 5748 5747 5746 5745 5743
5782 5781 5781 5780 5780 5779 5778 5776 5775 5774 5773 5772 5771 5770 5769 5768 5767 5765 5764 5762 5761 5759 5757 5756 5755 5754 5753 5752 5751 5750 5749 5748 5746 5745 5743 5743 5742 5740 5739 5738 5737 5736 5735
5775 5775 5774 5774 5773 5772 5771 5770 5769 5768 5767 5766 5765 5764 5762 5761 5760 5758 5757 5755 5753 5751 5750 5748 5747 5746 5744 5743 5742 5741 5740 5739 5738 5737 5735 5734 5732 5731 5731 5730 5728 5727 5726